This demonstration page uses our WeatherBlox Daily Observations layout. Learn more.

Left ArrowRight Arrow

53.62937, 11.41316

Hourly Observations for November 10, 2019

Temp ( °F °C ) Dew Point ( °F °C ) Humidity (%) Winds ( mph kmh ) Pressure ( in mb ) Visibility ( mi km ) Precip ( " mm )
6:50 am 06:50 Mostly Clear with Mist and Fog 32 0 32 0 100 100 VRB 1 2 29.86 1011 2 4 N/A
7:20 am 07:20 Mostly Clear with Patchy Fog 32 0 32 0 100 100 VRB 1 2 29.86 1011 1 2 N/A
7:50 am 07:50 Partly Cloudy with Mist and Fog 32 0 32 0 100 100 VRB 2 4 29.89 1012 2 4 N/A
8:20 am 08:20 Partly Cloudy with Mist and Fog 32 0 32 0 100 100 S 2 4 29.89 1012 3 5 N/A
8:50 am 08:50 Mostly Sunny 34 1 34 1 100 100 VRB 1 2 29.89 1012 4 6 N/A
9:20 am 09:20 Mostly Sunny 36 2 36 2 100 100 VRB 1 2 29.89 1012 4 7 N/A
9:50 am 09:50 Mostly Sunny 37 3 37 3 100 100 S 3 6 29.92 1013 5 8 N/A
10:20 am 10:20 Mostly Sunny 39 4 36 2 87 87 S 3 6 29.92 1013 7 11 N/A
10:50 am 10:50 Mostly Sunny 41 5 37 3 87 87 SW 6 9 29.92 1013 7 11 N/A
11:20 am 11:20 Mostly Sunny 41 5 37 3 87 87 SSW 3 6 29.92 1013 7 11 N/A
11:50 am 11:50 Mostly Sunny 45 7 39 4 81 81 VRB 2 4 29.92 1013 7 11 N/A
12:20 pm 12:20 Mostly Sunny 45 7 39 4 81 81 S 3 6 29.92 1013 7 11 N/A
12:50 pm 12:50 Mostly Sunny 46 8 39 4 76 76 VRB 2 4 29.92 1013 7 11 N/A
1:20 pm 13:20 Mostly Sunny 46 8 39 4 76 76 S 6 9 29.92 1013 7 11 N/A
1:50 pm 13:50 Mostly Sunny 46 8 39 4 76 76 S 5 7 29.92 1013 7 11 N/A
2:20 pm 14:20 Mostly Sunny 46 8 39 4 76 76 SSW 5 7 29.92 1013 7 11 N/A
2:50 pm 14:50 Mostly Sunny 45 7 39 4 81 81 S 6 9 29.92 1013 7 11 N/A
3:20 pm 15:20 Mostly Sunny 45 7 39 4 81 81 S 3 6 29.92 1013 7 11 N/A
3:50 pm 15:50 Mostly Sunny 45 7 39 4 81 81 S 3 6 29.92 1013 7 11 N/A
4:20 pm 16:20 Mostly Sunny 41 5 37 3 87 87 S 3 6 29.95 1014 7 11 N/A
4:50 pm 16:50 Mostly Clear 41 5 37 3 87 87 S 3 6 29.95 1014 7 11 N/A
5:20 pm 17:20 Mostly Clear 41 5 36 2 81 81 SSW 3 6 29.95 1014 7 11 N/A
5:50 pm 17:50 Mostly Clear 39 4 36 2 87 87 SSE 3 6 29.95 1014 7 11 N/A
6:20 pm 18:20 Mostly Clear 39 4 37 3 93 93 S 3 6 29.95 1014 7 11 N/A
6:50 pm 18:50 Mostly Clear 39 4 36 2 87 87 SSW 5 7 29.95 1014 7 11 N/A
7:20 pm 19:20 Mostly Clear 37 3 36 2 93 93 S 5 7 29.95 1014 7 11 N/A
7:50 pm 19:50 Mostly Clear 37 3 36 2 93 93 S 5 7 29.95 1014 7 11 N/A

Powered by AerisWeather